Hourly Data Report for September 10, 2017

All times are specified in Local Standard Time (LST). Add 1 hour to adjust for Daylight Saving Time where and when it is observed.

DOAKTOWN AUTO RCS
NEW BRUNSWICK

46°35'06.090" N
66°00'35.071" W
43.00 m
8101201
71038
ADN

Download Data

Hourly Data (September 2017)
Hourly Data Report for September 10, 2017
Temp Definition
°C
Dew Point Temp Definition
°C
Rel Hum Definition
%
Wind Dir Definition
10's deg

Wind Spd Definition
km/h
Visibility Definition
km
Stn Press Definition
kPa
Hmdx Definition


Wind Chill Definition


Weather Definition


TIME
00:00 8.8 8.2 96 14 1   101.88     LegendNANA
01:00 7.7 7.1 96 0 1   101.90     LegendNANA
02:00 7.1 6.5 96 0 1   101.89     LegendNANA
03:00 6.5 5.9 96 0 1   101.87     LegendNANA
04:00 6.1 5.6 96   0   101.90     LegendNANA
05:00 6.3 5.8 97 28 2   101.95     LegendNANA
06:00 5.9 5.4 97 26 7   101.99     LegendNANA
07:00 6.4 6.0 97 26 6   102.02     LegendNANA
08:00 8.2 7.8 97 25 3   101.99     LegendNANA
09:00 12.0 11.4 97 19 2   101.97     LegendNANA
10:00 15.9 11.8 77 21 6   101.92     LegendNANA
11:00 18.1 10.9 63 3 5   101.84     LegendNANA
12:00 20.0 9.2 50 5 8   101.76     LegendNANA
13:00 19.7 7.7 46 4 8   101.69     LegendNANA
14:00 18.8 10.2 58 4 12   101.64     LegendNANA
15:00 19.8 8.8 49 3 8   101.57     LegendNANA
16:00 18.7 8.5 51 34 4   101.55     LegendNANA
17:00 17.9 10.4 62 32 2   101.56     LegendNANA
18:00 16.0 9.5 65 29 5   101.58     LegendNANA
19:00 14.9 10.0 73 28 6   101.61     LegendNANA
20:00 14.0 9.6 75 27 4   101.62     LegendNANA
21:00 13.1 8.4 73 26 7   101.56     LegendNANA
22:00 12.5 8.2 75 25 3   101.53     LegendNANA
23:00 11.4 9.3 87 28 2   101.51     LegendNANA

Notes on Data Quality.

Legend

  • E = Estimated
  • M = Missing
  • NA = Not Available
  • ‡ = Partner data that is not subject to review by the National Climate Archives
Date modified: